Location: Asheville, NC
(35.6000°N, 82.5500°W)
Time: 19:50:15
(UTC-04:00)

KKS-1 - Pass Details

Date: 06 January 2018
Orbit: 637 x 650 km, 98.4° (Epoch: 26 May)

Event Time Altitude Azimuth Distance (km) Brightness Sun altitude
Rises 18:40:13 0° 359° (N) 2,943 ? -13.6°
Reaches altitude 10° 18:42:40 10° 348° (NNW) 2,031 ? -14.1°
Maximum altitude 18:46:24 28° 290° (WNW) 1,204 ? -14.8°
Drops below altitude 10° 18:50:10 10° 232° (SW) 2,025 ? -15.5°
Sets 18:52:35 0° 220° (SW) 2,932 ? -16.0°
